Location: Cutler
(25.6150°N, 80.3110°W)
Time: 14:25:31
(UTC-04:00)

Cosmos 2360 Rocket - Visible Passes

Search period start: 28 July 2014 00:00
Search period end: 07 August 2014 00:00
Orbit: 834 x 845 km, 71.0° (Epoch: 28 July)

Date Brightness Start Highest point End Pass type
(mag) Time Alt. Az. Time Alt. Az. Time Alt. Az.
28 Jul 3.8 21:22:57 10° NNE 21:26:29 17° ENE 21:27:38 16° ENE visible
28 Jul 3.3 23:05:14 10° NNW 23:09:26 40° WNW 23:09:26 40° WNW visible
29 Jul 3.9 21:07:36 10° NNE 21:10:52 16° ENE 21:12:43 14° E visible
29 Jul 2.9 22:49:37 10° NNW 22:54:30 49° W 22:54:30 49° W visible
30 Jul 4.0 20:52:17 10° NNE 20:55:15 14° ENE 20:57:50 11° E visible
30 Jul 2.6 22:34:00 10° NNW 22:39:30 55° WSW 22:39:38 54° WSW visible
31 Jul 4.1 20:37:02 10° NNE 20:39:38 13° ENE 20:42:15 10° E visible
31 Jul 2.5 22:18:23 10° NNW 22:23:56 59° WSW 22:24:50 52° SW visible
01 Aug 2.4 22:02:47 10° NNW 22:08:22 64° WSW 22:10:06 43° SSW visible
02 Aug 2.4 21:47:11 10° NNW 21:52:48 69° WSW 21:55:26 32° S visible
03 Aug 2.3 21:31:36 10° NNW 21:37:14 75° WSW 21:40:50 23° S visible
04 Aug 2.3 21:16:01 10° NNW 21:21:40 81° WSW 21:26:20 15° SSE visible
05 Aug 2.2 21:00:26 10° NNW 21:06:06 87° WSW 21:11:45 10° SSE visible
06 Aug 2.2 20:44:51 10° NNW 20:50:32 87° ENE 20:56:11 10° SSE visible
